Home > Weather > Port Hedland > Past weeks

Flag for Australia Weather for the Past 2 Weeks in Port Hedland, Western Australia, Australia

Now
79 °F

Sunny.


Feels Like: 82 °F
Forecast: 78 / 84 °F
Wind: 6 mph from Southwest

Location: Port Hedland Pardoo

Current Time: May 5, 2016 at 6:34:52 AM

Latest Report: May 5, 2016 at 6:00 AM


Visibility: 10 mi

Pressure: 29.83 "Hg

Humidity: 84%

Dew Point: 73 °F

Location of Port HedlandLocation

Historic Weather in Port Hedland — Graph

°F

Port Hedland Temperature Yesterday

Maximum temperature yesterday: 93 °F (at 10:30 AM)
Minimum temperature yesterday: 75 °F (at 2:00 AM)
Average temperature yesterday: 84 °F

High & Low Weather Summary for the Past Weeks

 TemperatureHumidityPressure
High102 °F (Apr 20, 12:00 PM)100% (Apr 28, 12:30 AM)30.04 "Hg (Apr 28, 12:30 AM)
Low66 °F (Apr 23, 5:30 AM)8% (Apr 22, 2:30 PM)29.77 "Hg (Apr 27, 2:00 PM)
Average84 °F56%29.88 "Hg
* Reported Apr 20 2:00 AM — May 5 2:00 AM, Port Hedland, Weather by CustomWeather, © 2016

Note: Actual official high and low records may vary slightly from our data, if they occured in-between our weather recording intervals... More about our weather records

Advertising

Port Hedland Weather History for the Previous 24 Hours

Scroll right to see more
 ConditionsComfort  
Time TempWeatherWind HumidityBarometerVisibility
2:00 AM
Thu, May 5
81 °FClear.6 mph79%29.83 "HgN/A
1:30 AM81 °FClear.8 mph79%29.83 "HgN/A
1:00 AM81 °FClear.6 mph74%29.83 "HgN/A
12:00 AM81 °FClear.6 mph74%29.83 "HgN/A
11:30 PM
Wed, May 4
82 °FClear.7 mph70%29.86 "HgN/A
10:30 PM82 °FClear.6 mph70%29.86 "HgN/A
10:00 PM82 °FClear.8 mph70%29.86 "HgN/A
9:30 PM82 °FClear.7 mph70%29.86 "HgN/A
9:00 PM82 °FPassing clouds.7 mph70%29.86 "HgN/A
8:00 PM82 °FClear.8 mph70%29.86 "HgN/A
7:00 PM82 °FClear.10 mph70%29.83 "HgN/A
6:30 PM84 °FClear.10 mph66%29.83 "HgN/A
6:00 PM84 °FClear.10 mph66%29.80 "HgN/A
5:00 PM86 °FClear.10 mph59%29.80 "HgN/A
4:00 PM90 °FSunny.10 mph43%29.77 "HgN/A
3:00 PM91 °FSunny.10 mph36%29.77 "HgN/A
2:00 PM93 °FSunny.9 mph30%29.80 "Hg10 mi
1:30 PM93 °FSunny.10 mph28%29.80 "Hg10 mi
1:00 PM91 °FSunny.10 mph26%29.80 "Hg10 mi
12:30 PM91 °FSunny.12 mph34%29.83 "Hg10 mi
12:00 PM90 °FSunny.12 mph36%29.83 "Hg10 mi
11:00 AM93 °FSunny.12 mph28%29.86 "Hg10 mi
10:30 AM93 °FSunny.8 mph26%29.86 "Hg10 mi
10:00 AM91 °FSunny.8 mph28%29.86 "Hg10 mi
9:30 AM91 °FSunny.6 mph24%29.89 "Hg10 mi
9:00 AM88 °FSunny.5 mph35%29.89 "Hg10 mi
8:30 AM84 °FSunny.3 mph51%29.89 "Hg10 mi
8:00 AM82 °FScattered clouds.No wind58%29.86 "HgN/A
7:30 AM79 °FSunny.No wind65%29.86 "Hg10 mi
7:00 AM77 °FSunny.1 mph74%29.86 "Hg10 mi
6:30 AM75 °FSunny.No wind74%29.86 "Hg10 mi
6:00 AM77 °FSunny.1 mph74%29.86 "Hg10 mi
Weather by CustomWeather, © 2016

See weather overviewHow to use our weather pages